Stuart, FL

12:52 AM EDT on September 25, 2017 (GMT -0400)
Witham

Weather History for KSUA - November, 2013

Change the Weather History Date:

Saturday, November 30, 2013

  Actual Average Record
Temperature  
Mean Temperature 68 °F -  
Max Temperature 77 °F 78 °F 87 °F (1971)
Min Temperature 60 °F 60 °F 38 °F (1959)
Cooling Degree Days 4    
Growing Degree Days 18 (Base 50)    
Moisture  
Dew Point 59 °F    
Average Humidity 75    
Maximum Humidity 88    
Minimum Humidity 44    
Precipitation  
Precipitation 0.00 in - - ()
Sea Level Pressure  
Sea Level Pressure 30.20 in    
Wind  
Wind Speed 8 mph (North)    
Max Wind Speed 20 mph    
Max Gust Speed 26 mph    
Visibility 9 miles    
Events Rain    
Averages and records for this station are not official NWS values.
T = Trace of Precipitation, MM = Missing Value Source: NWS Daily Summary

Daily Weather History Graph

Daily Weather History Graph

Search for Another Location

Airport or City:

Trip Planner

Search our weather history database for the weather conditions in past years. The results will help you decide how hot, cold, wet, or windy it might be!

Date:

Astronomy

Nov. 30, 2013 Rise Set
Actual Time 6:52 AM EST 5:26 PM EST
Civil Twilight 6:27 AM EST 5:51 PM EST
Nautical Twilight 5:58 AM EST 6:20 PM EST
Astronomical Twilight 5:30 AM EST 6:48 PM EST
Moon 4:13 AM EST (11/30) 3:39 PM EST (11/30)
Length of Visible Light 11h 24m
Length of Day
10h 33m
Waning Crescent, 7% of the Moon is Illuminated
Nov 30
Waning Crescent
Dec 2
New
Dec 9
First Quarter
Dec 17
Full
Dec 25
Last Quarter

Hourly Weather History & Observations

Time (EST) Temp. Dew Point Humidity Pressure Visibility Wind Dir Wind Speed Gust Speed Precip Events Conditions
12:15 AM 62.6 °F 57.2 °F 82% 30.25 in 10.0 mi West 5.8 mph - N/A   Scattered Clouds
12:35 AM 62.6 °F 59.0 °F 88% 30.25 in 10.0 mi WNW 6.9 mph - N/A   Mostly Cloudy
12:55 AM 62.6 °F 59.0 °F 88% 30.24 in 10.0 mi NW 6.9 mph - N/A   Mostly Cloudy
1:15 AM 62.6 °F 57.2 °F 82% 30.24 in 10.0 mi WNW 6.9 mph - N/A   Scattered Clouds
1:35 AM 62.6 °F 59.0 °F 88% 30.23 in 10.0 mi NW 8.1 mph - N/A   Scattered Clouds
1:55 AM 62.6 °F 59.0 °F 88% 30.23 in 10.0 mi NW 8.1 mph - N/A   Mostly Cloudy
2:15 AM 62.6 °F 59.0 °F 88% 30.22 in 10.0 mi NW 6.9 mph - N/A   Mostly Cloudy
2:35 AM 62.6 °F 59.0 °F 88% 30.22 in 10.0 mi NW 5.8 mph - N/A   Scattered Clouds
2:55 AM 62.6 °F 59.0 °F 88% 30.22 in 10.0 mi NW 8.1 mph - N/A   Mostly Cloudy
3:15 AM 62.6 °F 57.2 °F 82% 30.22 in 10.0 mi NW 8.1 mph - N/A   Scattered Clouds
3:35 AM 60.8 °F 57.2 °F 88% 30.22 in 10.0 mi NW 6.9 mph - N/A   Clear
3:55 AM 60.8 °F 57.2 °F 88% 30.21 in 10.0 mi NW 6.9 mph - N/A   Scattered Clouds
4:15 AM 60.8 °F 55.4 °F 82% 30.21 in 10.0 mi NW 4.6 mph - N/A   Scattered Clouds
4:35 AM 60.8 °F 55.4 °F 82% 30.20 in 10.0 mi NW 4.6 mph - N/A   Scattered Clouds
4:55 AM 60.8 °F 55.4 °F 82% 30.20 in 10.0 mi WNW 3.5 mph - N/A   Scattered Clouds
5:15 AM 60.8 °F 57.2 °F 88% 30.20 in 10.0 mi WNW 4.6 mph - N/A   Mostly Cloudy
5:35 AM 60.8 °F 57.2 °F 88% 30.20 in 10.0 mi Calm Calm - N/A   Scattered Clouds
5:55 AM 60.8 °F 57.2 °F 88% 30.20 in 10.0 mi WNW 5.8 mph - N/A   Scattered Clouds
6:15 AM 62.6 °F 59.0 °F 88% 30.21 in 10.0 mi NW 5.8 mph - N/A   Mostly Cloudy
6:47 AM 62.6 °F 59.0 °F 88% 30.20 in 7.0 mi WNW 9.2 mph - N/A   Mostly Cloudy
7:47 AM 64.4 °F 60.8 °F 88% 30.23 in 3.0 mi WNW 5.8 mph - N/A Rain Rain
8:47 AM 68.0 °F 64.4 °F 88% 30.23 in 3.0 mi NW 4.6 mph - N/A Rain Rain
9:47 AM 69.8 °F 66.2 °F 88% 30.26 in 4.0 mi ENE 6.9 mph - N/A Rain Rain
10:47 AM 71.6 °F 66.2 °F 83% 30.25 in 4.0 mi East 10.4 mph - N/A Rain Rain
11:47 AM 73.4 °F 62.6 °F 69% 30.23 in 6.0 mi ENE 16.1 mph 23.0 mph N/A Rain Rain Showers
12:47 PM 75.2 °F 59.0 °F 57% 30.20 in 6.0 mi ENE 15.0 mph 26.5 mph N/A   Mostly Cloudy
1:47 PM 77.0 °F 55.4 °F 47% 30.18 in 7.0 mi ENE 19.6 mph 25.3 mph N/A   Overcast
2:47 PM 77.0 °F 53.6 °F 44% 30.18 in 7.0 mi ENE 16.1 mph 23.0 mph N/A   Mostly Cloudy
3:47 PM 75.2 °F 53.6 °F 47% 30.18 in 7.0 mi ENE 17.3 mph 24.2 mph N/A   Mostly Cloudy
4:47 PM 75.2 °F 55.4 °F 50% 30.17 in 7.0 mi ENE 16.1 mph 23.0 mph N/A   Scattered Clouds
5:47 PM 73.4 °F 55.4 °F 53% 30.17 in 7.0 mi ENE 16.1 mph 23.0 mph N/A   Scattered Clouds
6:47 PM 73.4 °F 55.4 °F 53% 30.17 in 7.0 mi NE 11.5 mph 20.7 mph N/A   Scattered Clouds
8:15 PM 71.6 °F 57.2 °F 60% 30.18 in 10.0 mi NE 9.2 mph - N/A   Scattered Clouds
8:35 PM 73.4 °F 59.0 °F 61% 30.18 in 10.0 mi ENE 10.4 mph 19.6 mph N/A   Mostly Cloudy
8:55 PM 73.4 °F 59.0 °F 61% 30.18 in 10.0 mi NE 11.5 mph - N/A   Scattered Clouds
9:15 PM 71.6 °F 59.0 °F 64% 30.18 in 10.0 mi NE 12.7 mph - N/A   Scattered Clouds
9:35 PM 73.4 °F 60.8 °F 65% 30.18 in 10.0 mi NE 13.8 mph - N/A   Scattered Clouds
9:55 PM 71.6 °F 60.8 °F 69% 30.17 in 10.0 mi ENE 10.4 mph 18.4 mph N/A   Scattered Clouds
10:15 PM 71.6 °F 62.6 °F 73% 30.16 in 10.0 mi ENE 13.8 mph 19.6 mph N/A   Scattered Clouds
10:35 PM 71.6 °F 60.8 °F 69% 30.16 in 10.0 mi NE 10.4 mph - N/A   Scattered Clouds
10:55 PM 71.6 °F 62.6 °F 73% 30.15 in 10.0 mi NE 6.9 mph - N/A   Clear
11:15 PM 69.8 °F 62.6 °F 78% 30.15 in 10.0 mi NE 6.9 mph - N/A   Scattered Clouds
11:35 PM 71.6 °F 60.8 °F 69% 30.15 in 10.0 mi ENE 9.2 mph - N/A   Scattered Clouds
11:55 PM 71.6 °F 62.6 °F 73% 30.15 in 10.0 mi ENE 8.1 mph - N/A   Mostly Cloudy